CW9849 Weather Reports


Display with metric or nautical units.
time (UTC)temp
F
wind
direction
speed
MPH
gust
MPH
rain 1hr
in
rain 24hr
in
rain mn
in
humidity
%
barometer
mb
20260502161532 54 162 4.0 10.0 0.00 0.01 0.01 86 1013.5
20260502151523 54 123 6.0 11.0 0.00 0.01 0.01 86 1013.9
20260502123008 56 115 2.0 7.0 0.00 0.01 0.01 89 1014.8
20260502121608 56 102 5.0 9.0 0.00 0.01 0.01 89 1014.9
20260502114502 55 102 4.0 9.0 0.00 0.01 0.01 90 1015.4
20260502113127 55 105 3.0 8.0 0.00 0.01 0.01 90 1015.5
20260502111604 55 115 5.0 10.0 0.00 0.01 0.01 90 1015.6
20260502110057 55 102 5.0 9.0 0.00 0.01 0.01 90 1015.7
20260502104606 55 108 3.0 8.0 0.00 0.01 0.01 90 1016.2
20260502103055 55 102 3.0 7.0 0.00 0.01 0.01 90 1016.2
20260502101605 55 155 3.0 7.0 0.00 0.01 0.01 90 1016.3
20260502071526 53 170 5.0 10.0 0.01 0.01 0.01 90 1017.3
20260502070038 53 166 6.0 12.0 0.01 0.01 0.01 90 1017.3
20260502064525 53 164 6.0 11.0 0.00 0.00 0.00 90 1017.5
20260502063029 53 154 6.0 10.0 0.00 0.00 0.00 90 1017.5
20260502061520 53 141 5.0 10.0 0.00 0.00 0.00 90 1017.5
20260502060033 53 165 6.0 9.0 0.00 0.00 0.00 90 1017.5
20260502054531 53 155 4.0 9.0 0.00 0.00 0.00 90 1017.4
20260502053016 53 142 5.0 11.0 0.00 0.00 0.00 90 1017.5
20260502051514 53 147 5.0 8.0 0.00 0.00 0.00 90 1017.6
20260502050019 53 165 5.0 9.0 0.00 0.00 0.00 90 1017.6
20260502044516 53 150 4.0 10.0 0.00 0.01 0.00 90 1017.7
20260502043009 53 156 7.0 11.0 0.00 0.01 0.00 90 1017.8
20260502041520 53 133 5.0 11.0 0.00 0.01 0.00 90 1017.8
20260502040006 53 152 6.0 10.0 0.00 0.01 0.00 90 1017.9
20260502034504 53 150 5.0 10.0 0.00 0.01 0.00 90 1018.2
20260502033005 53 155 3.0 8.0 0.00 0.01 0.00 90 1018.3
20260502031602 53 144 6.0 10.0 0.00 0.01 0.00 90 1018.5
20260502030118 53 155 6.0 12.0 0.00 0.01 0.00 89 1018.8
20260502024605 53 164 5.0 10.0 0.00 0.01 0.00 89 1018.9
20260502023128 53 155 4.0 6.0 0.00 0.01 0.00 89 1019.0
20260502021553 53 132 4.0 7.0 0.00 0.01 0.00 89 1019.1
20260502020052 53 197 5.0 9.0 0.00 0.01 0.00 89 1019.3
20260502014603 53 168 4.0 10.0 0.00 0.01 0.00 89 1019.4
20260502013055 53 163 5.0 9.0 0.00 0.01 0.00 89 1019.5
20260502011603 53 166 4.0 6.0 0.00 0.01 0.00 89 1019.5
20260502010044 53 141 3.0 6.0 0.00 0.01 0.00 89 1019.7
20260502004542 53 140 3.0 8.0 0.00 0.01 0.00 89 1020.0
20260502003040 52 152 5.0 8.0 0.00 0.01 0.00 89 1020.5
20260502001542 52 143 3.0 8.0 0.00 0.01 0.00 88 1020.5
20260502000053 52 140 4.0 7.0 0.00 0.01 0.00 88 1020.7
20260501234536 52 164 5.0 9.0 0.00 0.01 0.00 88 1020.5
20260501233034 53 154 5.0 9.0 0.00 0.01 0.00 88 1020.6
20260501231530 53 189 4.0 8.0 0.00 0.01 0.00 88 1020.7
20260501230106 53 215 6.0 10.0 0.00 0.01 0.00 88 1020.9
20260501224528 53 173 7.0 12.0 0.00 0.01 0.01 88 1021.0
20260501223027 53 174 9.0 13.0 0.00 0.01 0.01 88 1021.1
20260501221526 53 196 5.0 8.0 0.00 0.01 0.01 87 1021.0
20260501220025 53 160 5.0 8.0 0.00 0.01 0.01 87 1021.0
20260501214524 53 164 5.0 8.0 0.00 0.01 0.01 87 1021.1
20260501213027 53 178 4.0 7.0 0.00 0.01 0.01 87 1021.2
20260501211523 53 137 4.0 7.0 0.00 0.01 0.01 86 1021.2
20260501210022 53 167 5.0 8.0 0.00 0.01 0.01 86 1021.2
20260501204521 53 181 3.0 7.0 0.00 0.01 0.01 86 1021.2
20260501203025 53 189 5.0 8.0 0.00 0.01 0.01 85 1021.2
20260501201518 54 183 6.0 9.0 0.00 0.01 0.01 85 1021.1
20260501200019 54 189 5.0 8.0 0.00 0.01 0.01 85 1021.0
20260501194522 54 176 5.0 9.0 0.00 0.01 0.01 84 1021.1
20260501193018 55 187 5.0 9.0 0.00 0.01 0.01 84 1021.0
20260501191517 56 210 6.0 11.0 0.00 0.01 0.01 83 1021.1
20260501190017 57 159 5.0 11.0 0.00 0.01 0.01 83 1020.9
20260501184517 57 174 6.0 11.0 0.00 0.01 0.01 83 1020.9
20260501183015 58 187 6.0 12.0 0.00 0.01 0.01 83 1020.8
20260501181515 57 165 6.0 11.0 0.00 0.01 0.01 82 1020.8
20260501180014 58 191 5.0 13.0 0.00 0.01 0.01 82 1020.9
20260501174512 58 171 4.0 9.0 0.00 0.01 0.01 81 1020.8
20260501173021 58 171 5.0 11.0 0.00 0.01 0.01 80 1020.9
20260501171511 59 159 7.0 12.0 0.00 0.01 0.01 79 1021.0
20260501170011 60 200 6.0 12.0 0.00 0.01 0.01 79 1020.9
20260501164509 60 186 8.0 12.0 0.00 0.01 0.01 78 1021.0
20260501163009 61 189 6.0 14.0 0.00 0.01 0.01 78 1021.1